SVA542 OERK-OTHH

Flight info

Callsign SVA542
Flight time 0h 58m
Altitude 35000
Route OTALI M440 SITER DCT LADBO/N0462F290 T142 LAEEB
Aircraft A321/M-SDE3FGHIRWY/LB1

Departure

Time 2026-05-06 21:01
Airport King Khalid International Airport (OERK)

Arrival

Time 2026-05-06 21:59
Airport Hamad International Airport (OTHH)
Time Latitude Longitude Altitude Speed Heading
2026-05-06 21:00 25.12284 46.69130 5237 ft 275 kts
2026-05-06 21:01 25.14216 46.69173 5601 ft 285 kts
2026-05-06 21:01 25.16138 46.69831 5841 ft 294 kts 32°
2026-05-06 21:01 25.17723 46.71226 6317 ft 292 kts 54°
2026-05-06 21:01 25.18748 46.73128 6805 ft 288 kts 75°
2026-05-06 21:02 25.19099 46.75270 7325 ft 283 kts 94°
2026-05-06 21:02 25.19096 46.77444 7870 ft 284 kts 94°
2026-05-06 21:02 25.19089 46.79628 8414 ft 287 kts 94°
2026-05-06 21:02 25.19084 46.81852 8952 ft 290 kts 94°
2026-05-06 21:03 25.19079 46.84068 9491 ft 293 kts 94°
2026-05-06 21:03 25.19009 46.86319 10003 ft 294 kts 102°
2026-05-06 21:03 25.18481 46.88492 10367 ft 298 kts 116°
2026-05-06 21:03 25.17491 46.90568 10479 ft 313 kts 122°
2026-05-06 21:04 25.16400 46.92713 10599 ft 330 kts 122°
2026-05-06 21:04 25.15257 46.94975 10713 ft 345 kts 121°
2026-05-06 21:04 25.14069 46.97345 10836 ft 359 kts 121°
2026-05-06 21:04 25.12846 46.99793 11060 ft 368 kts 121°
2026-05-06 21:05 25.11619 47.02256 11447 ft 373 kts 121°
2026-05-06 21:05 25.10369 47.04764 11864 ft 376 kts 121°
2026-05-06 21:05 25.09093 47.07308 12215 ft 382 kts 123°
2026-05-06 21:05 25.07793 47.09895 12571 ft 387 kts 123°
2026-05-06 21:06 25.06483 47.12494 12986 ft 390 kts 123°
2026-05-06 21:06 25.05163 47.15114 13371 ft 393 kts 123°
2026-05-06 21:06 25.03828 47.17767 13784 ft 397 kts 123°
2026-05-06 21:06 25.02493 47.20421 14248 ft 396 kts 122°
2026-05-06 21:07 25.01161 47.23077 14671 ft 397 kts 122°
2026-05-06 21:07 24.99818 47.25756 15015 ft 401 kts 122°
2026-05-06 21:07 24.98459 47.28457 15350 ft 404 kts 122°
2026-05-06 21:07 24.97090 47.31171 15672 ft 407 kts 122°
2026-05-06 21:08 24.95708 47.33908 15958 ft 411 kts 122°
2026-05-06 21:08 24.94329 47.36636 16223 ft 415 kts 122°
2026-05-06 21:08 24.92897 47.39401 16496 ft 416 kts 126°
2026-05-06 21:08 24.91150 47.41918 16876 ft 412 kts 136°
2026-05-06 21:09 24.89109 47.44122 17189 ft 412 kts 140°
2026-05-06 21:09 24.87032 47.46296 17473 ft 414 kts 140°
2026-05-06 21:09 24.84933 47.48497 17764 ft 417 kts 140°
2026-05-06 21:09 24.82830 47.50713 18036 ft 420 kts 140°
2026-05-06 21:10 24.80714 47.52946 18302 ft 423 kts 140°
2026-05-06 21:10 24.78588 47.55186 18566 ft 425 kts 141°
2026-05-06 21:10 24.76445 47.57439 18838 ft 427 kts 141°
2026-05-06 21:10 24.74292 47.59702 19104 ft 428 kts 140°
2026-05-06 21:11 24.72138 47.61966 19441 ft 428 kts 140°
2026-05-06 21:11 24.69984 47.64228 19739 ft 430 kts 140°
2026-05-06 21:11 24.67846 47.66476 20011 ft 432 kts 140°
2026-05-06 21:11 24.65668 47.68765 20267 ft 434 kts 140°
2026-05-06 21:12 24.63479 47.71060 20537 ft 437 kts 140°
2026-05-06 21:12 24.61271 47.73373 20778 ft 439 kts 140°
2026-05-06 21:12 24.59052 47.75692 21049 ft 442 kts 140°
2026-05-06 21:12 24.56915 47.78146 21289 ft 448 kts 132°
2026-05-06 21:13 24.55155 47.80995 21523 ft 455 kts 122°
2026-05-06 21:13 24.53851 47.84185 21820 ft 460 kts 112°
2026-05-06 21:13 24.52786 47.87502 22082 ft 462 kts 112°
2026-05-06 21:13 24.51708 47.90829 22325 ft 464 kts 112°
2026-05-06 21:14 24.50626 47.94130 22562 ft 467 kts 112°
2026-05-06 21:14 24.49519 47.97493 22813 ft 469 kts 112°
2026-05-06 21:14 24.48409 48.00861 23070 ft 471 kts 112°
2026-05-06 21:14 24.47297 48.04246 23325 ft 472 kts 112°
2026-05-06 21:15 24.46183 48.07644 23563 ft 475 kts 112°
2026-05-06 21:15 24.45063 48.11069 23770 ft 476 kts 112°
2026-05-06 21:15 24.43944 48.14492 23972 ft 478 kts 112°
2026-05-06 21:15 24.42817 48.17935 24194 ft 480 kts 112°
2026-05-06 21:16 24.41688 48.21381 24407 ft 481 kts 112°
2026-05-06 21:16 24.40552 48.24837 24630 ft 483 kts 112°
2026-05-06 21:16 24.39406 48.28309 24843 ft 484 kts 112°
2026-05-06 21:16 24.38252 48.31790 25060 ft 486 kts 113°
2026-05-06 21:17 24.37100 48.35271 25246 ft 488 kts 113°
2026-05-06 21:17 24.35939 48.38780 25457 ft 489 kts 113°
2026-05-06 21:17 24.34781 48.42289 25647 ft 491 kts 113°
2026-05-06 21:17 24.33634 48.45770 25832 ft 493 kts 113°
2026-05-06 21:18 24.32467 48.49311 26012 ft 495 kts 113°
2026-05-06 21:18 24.31289 48.52864 26174 ft 496 kts 113°
2026-05-06 21:18 24.30108 48.56412 26340 ft 498 kts 113°
2026-05-06 21:18 24.28918 48.59990 26503 ft 499 kts 113°
2026-05-06 21:19 24.27733 48.63558 26665 ft 500 kts 113°
2026-05-06 21:19 24.26540 48.67152 26796 ft 502 kts 113°
2026-05-06 21:19 24.25347 48.70743 26931 ft 502 kts 113°
2026-05-06 21:19 24.24162 48.74306 27076 ft 503 kts 113°
2026-05-06 21:20 24.22960 48.77910 27207 ft 504 kts 113°
2026-05-06 21:20 24.21756 48.81522 27349 ft 505 kts 113°
2026-05-06 21:20 24.20554 48.85133 27521 ft 505 kts 113°
2026-05-06 21:20 24.19502 48.88798 27699 ft 508 kts 106°
2026-05-06 21:21 24.18933 48.92628 27846 ft 511 kts 97°
2026-05-06 21:21 24.18903 48.96484 27881 ft 506 kts 88°
2026-05-06 21:21 24.19185 49.00347 27965 ft 509 kts 87°
2026-05-06 21:21 24.19466 49.04216 28093 ft 511 kts 88°
2026-05-06 21:22 24.19743 49.08100 28219 ft 512 kts 88°
2026-05-06 21:22 24.20019 49.11998 28344 ft 513 kts 88°
2026-05-06 21:22 24.20291 49.15884 28502 ft 513 kts 88°
2026-05-06 21:22 24.20562 49.19784 28665 ft 513 kts 88°
2026-05-06 21:23 24.20832 49.23684 28818 ft 513 kts 88°
2026-05-06 21:23 24.21101 49.27581 28971 ft 513 kts 88°
2026-05-06 21:23 24.21372 49.31479 29150 ft 513 kts 88°
2026-05-06 21:23 24.21639 49.35373 29333 ft 512 kts 88°
2026-05-06 21:24 24.21905 49.39260 29506 ft 512 kts 88°
2026-05-06 21:24 24.22167 49.43096 29660 ft 512 kts 88°
2026-05-06 21:24 24.22433 49.46983 29806 ft 512 kts 88°
2026-05-06 21:24 24.22697 49.50879 29951 ft 512 kts 88°
2026-05-06 21:25 24.22944 49.54544 30079 ft 512 kts 88°
2026-05-06 21:25 24.23206 49.58420 30217 ft 511 kts 88°
2026-05-06 21:25 24.23468 49.62307 30355 ft 511 kts 88°
2026-05-06 21:25 24.23730 49.66191 30489 ft 511 kts 88°
2026-05-06 21:26 24.23994 49.70079 30630 ft 511 kts 88°
2026-05-06 21:26 24.24256 49.73963 30769 ft 511 kts 88°
2026-05-06 21:26 24.24514 49.77838 30923 ft 511 kts 88°
2026-05-06 21:26 24.24772 49.81725 31075 ft 510 kts 88°
2026-05-06 21:27 24.25026 49.85593 31218 ft 510 kts 88°
2026-05-06 21:27 24.25275 49.89424 31365 ft 510 kts 88°
2026-05-06 21:27 24.25525 49.93297 31514 ft 510 kts 88°
2026-05-06 21:27 24.25773 49.97173 31663 ft 510 kts 88°
2026-05-06 21:28 24.26020 50.01046 31815 ft 510 kts 88°
2026-05-06 21:28 24.26270 50.04920 31969 ft 510 kts 88°
2026-05-06 21:28 24.26525 50.08807 32117 ft 510 kts 88°
2026-05-06 21:28 24.26776 50.12656 32267 ft 510 kts 88°
2026-05-06 21:29 24.27026 50.16575 32419 ft 510 kts 88°
2026-05-06 21:29 24.27268 50.20412 32568 ft 510 kts 88°
2026-05-06 21:29 24.27512 50.24297 32671 ft 511 kts 88°
2026-05-06 21:29 24.27755 50.28160 32847 ft 510 kts 88°
2026-05-06 21:30 24.27999 50.32041 33007 ft 509 kts 88°
2026-05-06 21:30 24.28241 50.35909 33152 ft 510 kts 88°
2026-05-06 21:30 24.28484 50.39790 33299 ft 509 kts 88°
2026-05-06 21:30 24.28723 50.43657 33445 ft 509 kts 88°
2026-05-06 21:31 24.28958 50.47525 33596 ft 509 kts 88°
2026-05-06 21:31 24.29190 50.51354 33748 ft 509 kts 88°
2026-05-06 21:31 24.29428 50.55269 33890 ft 509 kts 88°
2026-05-06 21:31 24.29661 50.59097 34011 ft 509 kts 88°
2026-05-06 21:32 24.29896 50.62970 34140 ft 509 kts 88°
2026-05-06 21:32 24.30366 50.70694 34409 ft 507 kts 88°
2026-05-06 21:32 24.30601 50.74548 34543 ft 507 kts 88°
2026-05-06 21:33 24.30833 50.78407 34667 ft 507 kts 88°
2026-05-06 21:33 24.31062 50.82252 34826 ft 506 kts 88°
2026-05-06 21:33 24.31517 50.89917 34846 ft 507 kts 88°
2026-05-06 21:34 24.31964 50.97611 34840 ft 506 kts 88°
2026-05-06 21:34 24.32394 51.05185 34840 ft 506 kts 88°
2026-05-06 21:35 24.32829 51.12876 34841 ft 506 kts 88°
2026-05-06 21:35 24.34048 51.20468 34843 ft 509 kts 71°
2026-05-06 21:36 24.35468 51.24020 34841 ft 509 kts 60°
2026-05-06 21:36 24.37355 51.27225 34839 ft 507 kts 50°
2026-05-06 21:36 24.42263 51.32719 34390 ft 507 kts 41°
2026-05-06 21:37 24.44846 51.35376 33090 ft 506 kts 41°
2026-05-06 21:37 24.47387 51.38003 32099 ft 495 kts 41°
2026-05-06 21:37 24.49855 51.40566 31140 ft 485 kts 41°
2026-05-06 21:37 24.52388 51.42953 30211 ft 474 kts 34°
2026-05-06 21:38 24.55145 51.44929 29139 ft 473 kts 26°
2026-05-06 21:38 24.58037 51.46513 28086 ft 472 kts 21°
2026-05-06 21:38 24.60987 51.47634 27100 ft 472 kts 10°
2026-05-06 21:38 24.64028 51.48077 26029 ft 475 kts 358°
2026-05-06 21:39 24.67315 51.47802 24870 ft 478 kts 346°
2026-05-06 21:39 24.70445 51.46746 24102 ft 473 kts 334°
2026-05-06 21:39 24.73276 51.45054 23347 ft 467 kts 323°
2026-05-06 21:39 24.75723 51.42753 22524 ft 460 kts 311°
2026-05-06 21:40 24.77786 51.40106 21824 ft 452 kts 308°
2026-05-06 21:40 24.79803 51.37477 21148 ft 446 kts 309°
2026-05-06 21:40 24.81786 51.34893 20504 ft 440 kts 309°
2026-05-06 21:40 24.83758 51.32328 19860 ft 435 kts 309°
2026-05-06 21:41 24.85697 51.29807 19239 ft 429 kts 310°
2026-05-06 21:41 24.87834 51.27540 18580 ft 426 kts 321°
2026-05-06 21:41 24.90293 51.25730 17865 ft 423 kts 331°
2026-05-06 21:41 24.92930 51.24368 17216 ft 416 kts 335°
2026-05-06 21:42 24.95543 51.23062 16613 ft 408 kts 335°
2026-05-06 21:42 24.98107 51.21763 16022 ft 402 kts 336°
2026-05-06 21:42 25.00596 51.20492 15486 ft 398 kts 336°
2026-05-06 21:42 25.03090 51.19215 14944 ft 395 kts 336°
2026-05-06 21:43 25.05549 51.17958 14419 ft 392 kts 336°
2026-05-06 21:43 25.07984 51.16714 13881 ft 390 kts 336°
2026-05-06 21:43 25.10445 51.15459 13293 ft 387 kts 336°
2026-05-06 21:43 25.12878 51.14217 12710 ft 384 kts 336°
2026-05-06 21:44 25.15287 51.12985 12250 ft 380 kts 336°
2026-05-06 21:44 25.17756 51.12018 11648 ft 375 kts 351°
2026-05-06 21:44 25.20336 51.11985 11152 ft 367 kts 11°
2026-05-06 21:44 25.22682 51.12850 11025 ft 350 kts 28°
2026-05-06 21:45 25.24596 51.14353 10903 ft 334 kts 44°
2026-05-06 21:45 25.25977 51.16314 10783 ft 319 kts 60°
2026-05-06 21:45 25.26768 51.18530 10657 ft 307 kts 76°
2026-05-06 21:45 25.26992 51.20846 10391 ft 300 kts 89°
2026-05-06 21:46 25.27008 51.23142 10186 ft 298 kts 88°
2026-05-06 21:46 25.26978 51.25401 10005 ft 299 kts 95°
2026-05-06 21:46 25.26578 51.27653 9712 ft 299 kts 103°
2026-05-06 21:46 25.26128 51.29746 9390 ft 298 kts 102°
2026-05-06 21:47 25.25622 51.32107 9055 ft 296 kts 102°
2026-05-06 21:47 25.25151 51.34316 8734 ft 295 kts 101°
2026-05-06 21:47 25.24835 51.35800 8558 ft 294 kts 102°
2026-05-06 21:47 25.24365 51.38004 8262 ft 293 kts 101°
2026-05-06 21:48 25.23898 51.40191 7957 ft 292 kts 103°
2026-05-06 21:48 25.23424 51.42401 7639 ft 291 kts 101°
2026-05-06 21:48 25.22960 51.44568 7326 ft 290 kts 102°
2026-05-06 21:48 25.22271 51.46654 7031 ft 289 kts 119°
2026-05-06 21:49 25.21043 51.48368 6728 ft 291 kts 137°
2026-05-06 21:49 25.19365 51.49590 6420 ft 290 kts 156°
2026-05-06 21:49 25.17495 51.50412 6109 ft 290 kts 158°
2026-05-06 21:49 25.15617 51.51231 5787 ft 289 kts 157°
2026-05-06 21:50 25.13756 51.52048 5493 ft 287 kts 157°
2026-05-06 21:50 25.11908 51.52863 5189 ft 284 kts 157°
2026-05-06 21:50 25.10081 51.53670 4889 ft 282 kts 157°
2026-05-06 21:50 25.08237 51.54482 4594 ft 281 kts 156°
2026-05-06 21:51 25.06381 51.55298 4287 ft 280 kts 157°
2026-05-06 21:51 25.04603 51.56081 3983 ft 279 kts 158°
2026-05-06 21:51 25.02809 51.56872 3703 ft 274 kts 158°
2026-05-06 21:51 25.01090 51.57649 3598 ft 260 kts 152°
2026-05-06 21:52 24.99787 51.58887 3494 ft 244 kts 119°
2026-05-06 21:52 24.99332 51.60526 3500 ft 241 kts 89°
2026-05-06 21:52 24.99726 51.62257 3499 ft 238 kts 59°
2026-05-06 21:52 25.00340 51.63477 3510 ft 229 kts 62°
2026-05-06 21:53 25.00894 51.64880 3499 ft 220 kts 67°
2026-05-06 21:53 25.01330 51.66137 3498 ft 219 kts 66°
2026-05-06 21:53 25.01905 51.67234 3500 ft 217 kts 51°
2026-05-06 21:53 25.02974 51.68318 3501 ft 217 kts 32°
2026-05-06 21:54 25.04351 51.68960 3501 ft 216 kts 12°
2026-05-06 21:54 25.05435 51.69078 3503 ft 217 kts 358°
2026-05-06 21:54 25.06786 51.68785 3505 ft 199 kts 340°
2026-05-06 21:54 25.08002 51.68250 3436 ft 194 kts 339°
2026-05-06 21:55 25.09036 51.67798 3281 ft 194 kts 339°
2026-05-06 21:55 25.10251 51.67265 3061 ft 192 kts 338°
2026-05-06 21:55 25.11488 51.66722 2834 ft 191 kts 339°
2026-05-06 21:55 25.12693 51.66192 2618 ft 182 kts 340°
2026-05-06 21:56 25.13837 51.65690 2380 ft 171 kts 339°
2026-05-06 21:56 25.14915 51.65216 2166 ft 165 kts 340°
2026-05-06 21:56 25.15964 51.64755 1964 ft 160 kts 339°
2026-05-06 21:56 25.16986 51.64306 1765 ft 153 kts 340°
2026-05-06 21:57 25.17939 51.63887 1584 ft 145 kts 340°
2026-05-06 21:57 25.18863 51.63481 1399 ft 142 kts 340°
2026-05-06 21:57 25.19782 51.63077 1218 ft 142 kts 340°
2026-05-06 21:57 25.20699 51.62673 1024 ft 142 kts 340°
2026-05-06 21:58 25.21610 51.62273 860 ft 140 kts 339°
2026-05-06 21:58 25.22515 51.61875 683 ft 141 kts 339°
2026-05-06 21:58 25.23418 51.61477 512 ft 139 kts 339°
2026-05-06 21:58 25.24325 51.61075 338 ft 138 kts 339°
2026-05-06 21:59 25.25211 51.60681 159 ft 139 kts 339°
2026-05-06 21:59 25.26097 51.60294 31 ft 130 kts 339°
2026-05-06 21:59 25.26827 51.59974 20 ft 86 kts 338°
2026-05-06 21:59 25.27237 51.59794 20 ft 44 kts 338°
2026-05-06 22:00 25.27430 51.59709 22 ft 22 kts 338°
2026-05-06 22:00 25.27511 51.59742 20 ft 11 kts 48°
2026-05-06 22:00 25.27532 51.59795 20 ft 0 kts 70°
2026-05-06 22:02 25.27533 51.59796 20 ft 1 kts 70°
2026-05-06 22:02 25.27541 51.59835 20 ft 9 kts 95°
2026-05-06 22:02 25.27473 51.59894 20 ft 17 kts 157°
2026-05-06 22:03 25.27365 51.59941 20 ft 16 kts 158°
2026-05-06 22:03 25.27265 51.59985 20 ft 15 kts 158°
2026-05-06 22:03 25.27175 51.60026 20 ft 13 kts 158°
2026-05-06 22:03 25.27092 51.60062 20 ft 12 kts 158°
2026-05-06 22:04 25.27017 51.60095 19 ft 11 kts 158°
2026-05-06 22:04 25.26950 51.60125 19 ft 10 kts 158°
2026-05-06 22:04 25.26892 51.60151 19 ft 8 kts 158°
2026-05-06 22:04 25.26841 51.60174 19 ft 8 kts 157°
2026-05-06 22:05 25.26795 51.60194 19 ft 7 kts 161°
2026-05-06 22:05 25.26754 51.60210 19 ft 6 kts 159°
2026-05-06 22:05 25.26720 51.60225 19 ft 5 kts 158°
2026-05-06 22:05 25.26692 51.60237 19 ft 4 kts 158°
2026-05-06 22:06 25.26664 51.60250 19 ft 5 kts 158°
2026-05-06 22:06 25.26630 51.60265 20 ft 6 kts 158°
2026-05-06 22:06 25.26581 51.60287 20 ft 10 kts 158°
2026-05-06 22:06 25.26500 51.60322 20 ft 15 kts 159°
2026-05-06 22:07 25.26387 51.60371 21 ft 19 kts 158°
2026-05-06 22:07 25.26265 51.60427 21 ft 19 kts 158°
2026-05-06 22:07 25.26136 51.60483 21 ft 20 kts 158°
2026-05-06 22:07 25.26006 51.60540 21 ft 21 kts 158°
2026-05-06 22:08 25.25872 51.60598 21 ft 22 kts 159°
2026-05-06 22:08 25.25751 51.60653 20 ft 13 kts 150°
2026-05-06 22:08 25.25746 51.60739 22 ft 13 kts 68°
2026-05-06 22:08 25.25781 51.60834 20 ft 15 kts 68°
2026-05-06 22:09 25.25818 51.60937 21 ft 16 kts 69°
2026-05-06 22:09 25.25859 51.61059 22 ft 18 kts 70°
2026-05-06 22:09 25.25905 51.61138 20 ft 8 kts 11°
2026-05-06 22:09 25.25949 51.61122 20 ft 7 kts 335°
2026-05-06 22:10 25.25973 51.61111 20 ft 0 kts 340°